Regional Weather Roundup
Issued by NWS

Home | Current Version | Previous Version | Graphics & Text | Print | Product List | Glossary On
Versions: 1 2 3 4 5 6 7 8 9 10 11 12 13 14 15 16 17 18 19 20 21 22 23 24 25 26 27 28 29 30 31 32 33 34 35 36 37 38 39 40 41 42 43 44 45 46 47 48 49 50
465
ASUS45 KTFX 230610
RWRMT
MONTANA REGIONAL WEATHER ROUNDUP
NATIONAL WEATHER SERVICE GREAT FALLS MT
1200 AM MDT THU MAR 23 2017

NOTE: "FAIR" INDICATES FEW OR NO CLOUDS BELOW 12000 FEET WITH NO
SIGNIFICANT WEATHER AND/OR OBSTRUCTIONS TO VISIBILITY.

MTZ001>007-043-230700-
WEST OF THE DIVIDE

CITY           SKY/WX    TMP DP  RH WIND       PRES   REMARKS
KALISPELL      CLOUDY    37  37 100 W5        29.88R
MISSOULA       MOCLDY    43  37  79 N8        29.90R
BUTTE          CLEAR     35  27  72 SE5       29.85R
MULLAN PASS    LGT SNOW  30  30 100 VRB6      29.89R VSB 3/4 WCI  24
ANACONDA         N/A     37  27  65 N3        29.86R
DEER LODGE       N/A     41  30  65 NE6       29.89R
EUREKA           N/A     39  37  93 SE8       29.86R
HAMILTON         N/A     43  34  70 CALM      29.89R
PLAINS           N/A     40  34  79 CALM      29.93R
THOMPSON FALLS   N/A     38  36  92 CALM      29.99R
$$

MTZ008-052>055-230700-
SOUTHWEST MONTANA

CITY           SKY/WX    TMP DP  RH WIND       PRES   REMARKS
BOZEMAN        CLOUDY    36  33  89 SE6       29.82R WCI  31
DILLON         CLOUDY    38  30  73 S6        29.82S
W YELLOWSTONE  CLOUDY    28  27  93 CALM      29.87S
ENNIS          MOCLDY    39  30  70 S5        29.88S
THREE FORKS      N/A     39  29  68 CALM      29.83R
TWIN BRIDGES     N/A     32  24  72 CALM      29.84S
$$

MTZ009-010-012-014-046-048-049-054-230700-
EAST SLOPES AND CENTRAL MONTANA

CITY           SKY/WX    TMP DP  RH WIND       PRES   REMARKS
CUT BANK       MOCLDY    40  30  67 W12       29.77S
GREAT FALLS    CLEAR     39  25  57 CALM      29.80S
HELENA         CLOUDY    42  31  64 NW7       29.83R
AUGUSTA          N/A     40  28  62 W13       29.81R
BOWMANS CRNR     N/A     36  24  62 SW8       29.80R WCI  30
CHOTEAU          N/A     41  30  65 W9        29.81R
CONRAD           N/A     39  32  76 SW8       29.81F
FAIRFIELD        N/A     38  26  62 CALM      29.79S
POWER            N/A     31  25  80 W7        29.78S WCI  24
RAYNESFORD       N/A     40  24  52 CALM      29.81R
$$

MTZ011-013-016-021-045-047-050-051-230700-
NORTH CENTRAL MONTANA

CITY           SKY/WX    TMP DP  RH WIND       PRES   REMARKS
HAVRE          CLEAR     36  29  75 SW12      29.76R WCI  28
LEWISTOWN      CLOUDY    41  29  62 E3        29.79S
N BAR RANCH    CLOUDY    39  36  87 NW6       29.83S
CHINOOK          N/A     37  28  70 CALM      29.76R
DENTON         MOCLDY    44  27  51 W9        29.76R
FORT BENTON      N/A    N/A N/A N/A MISG      29.80R
GEYSER         MOCLDY    41  26  54 SW14      29.79S
GRASS RANGE      N/A     42  34  73 W6        29.76S
STANFORD       MOCLDY    41  26  54 CALM      29.80S
WINIFRED       MOCLDY    48  26  42 W7        29.78R
$$

MTZ017>020-022>027-061-062-230700-
NORTHEAST MONTANA

CITY           SKY/WX    TMP DP  RH WIND       PRES   REMARKS
GLASGOW        CLOUDY    42  35  76 SE10      29.74S
JORDAN           N/A     45  38  76 E5        29.76S
SIDNEY         CLEAR     33  30  88 S3        29.78S
WOLF POINT     PTCLDY    38  35  89 NW3       29.76S
MALTA          CLOUDY    43  34  70 CALM      29.75S
PLENTYWOOD       N/A     39  34  81 E7        29.74F
POPLAR           N/A     43  36  75 CALM      29.77R
SCOBEY           N/A     37  24  60 CALM      29.75R
$$

MTZ028>42-056>058-230700-
SOUTHCENTRAL AND SOUTHEAST MONTANA

CITY           SKY/WX    TMP DP  RH WIND       PRES   REMARKS
BAKER          CLOUDY    41  36  82 CALM      29.79S
BILLINGS       CLOUDY    48  42  80 NE7       29.78R
LIVINGSTON     CLOUDY    39  33  79 NW10      29.80S
MILES CITY     CLOUDY    48  39  71 E6        29.76F
BIG TIMBER     CLOUDY    45  36  70 W8        29.83R
EKALAKA          N/A     42  37  82 CALM      29.76F
FORSYTH          N/A     46  39  76 CALM      29.78R
HARLOWTON      MOCLDY    43  27  52 N10       29.79F
LAUREL           N/A     47  36  65 CALM      29.80R
ROUNDUP          N/A     46  36  68 CALM      29.73R
$$

REGIONAL REPORTS...DAKOTAS

CITY           SKY/WX    TMP DP  RH WIND       PRES   REMARKS
WILLISTON      CLOUDY    31  28  89 CALM      29.78S
MINOT          CLEAR     34  29  82 S9        29.80F WCI  27
DICKINSON      CLOUDY    33  29  85 SE3       29.78R
BEACH            N/A    N/A N/A N/A MISG        N/A
TIOGA            N/A     32  32 100 CALM      29.79S
WATFORD CITY     N/A     32  32 100 SE6       29.78F WCI  26
BISMARCK       CLOUDY    34  27  75 SE8       29.85F WCI  27
GRAND FORKS    CLOUDY    34  21  59 S17G31    30.00F WCI  23
FARGO          PTCLDY    36  25  64 S21G32    30.04F WCI  25
BUFFALO SD       N/A     44  37  76 NE10      29.68F
RAPID CITY     PTCLDY    43  37  79 S10       29.74F
$$

REGIONAL REPORTS...WYOMING/IDAHO/WASHINGTON

CITY           SKY/WX    TMP DP  RH WIND       PRES   REMARKS
GILLETTE       CLOUDY    48  40  73 NE3       29.77R
SHERIDAN       MOCLDY    43  39  86 NW5       29.77S
BUFFALO WY     CLOUDY    49  38  65 CALM      29.77F
CODY           CLOUDY    50  33  52 N6        29.79F
YELLOWSTONE LA   N/A     28  27  96 CALM      29.88F
IDAHO FALLS    CLOUDY    43  37  79 CALM      29.83F
SALMON         CLOUDY    43  32  65 CALM      29.84S
BOISE          CLOUDY    48  38  68 W8        29.90S
SPOKANE        MOCLDY    43  39  86 W9        29.93R
$$

REGIONAL REPORTS...ALBERTA

CITY           SKY/WX    TMP DP  RH WIND       PRES   REMARKS
EDMONTON       PTCLDY    23  21  93 CALM      29.71R
CALGARY        CLEAR     37  32  81 W3        29.67F
LETHBRIDGE     CLEAR     37  28  70 SW14G21   29.73S WCI  29
MEDICINE HAT   PTCLDY    39  28  65 S9        29.71S
WATERTON GATE    N/A     39  28  65 SW14G20     N/A  WCI  31
CARDSTON         N/A     39  30  70 SW9         N/A
MILK RIVER       N/A     34  28  80 W9          N/A  WCI  26
$$

REGIONAL REPORTS...SASKATCHEWAN

CITY           SKY/WX    TMP DP  RH WIND       PRES   REMARKS
SWIFT CURRENT  CLEAR     36  32  87 SW8       29.69F WCI  29
REGINA         CLEAR     32  30  93 SE9       29.68S WCI  24
SASKATOON      PTCLDY    30  27  86 W13       29.68R WCI  20
CYPRESS HILLS    N/A     41  19  42 W9G17       N/A
VAL MARIE        N/A     36  28  75 SW3         N/A
ASSINIBOIA       N/A     14  12  92 W5          N/A
$$




USA.gov is the U.S. government's official web portal to all federal, state and local government web resources and services.